Regional Weather Roundup
Issued by NWS

Home | Current Version | Previous Version | Graphics & Text | Print | Product List | Glossary On
Versions: 1 2 3 4 5 6 7 8 9 10 11 12 13 14 15 16 17 18 19 20 21 22 23 24 25 26 27 28 29 30 31 32 33 34 35 36 37 38 39 40 41 42 43 44 45 46 47 48 49 50
000
ASUS45 KTFX 290019
RWRMT
MONTANA HOURLY WEATHER ROUNDUP
NATIONAL WEATHER SERVICE GREAT FALLS MT
519 PM MST WED JAN 28 2015

NOTE: "FAIR" INDICATES FEW OR NO CLOUDS BELOW 12000 FEET WITH NO
SIGNIFICANT WEATHER AND/OR OBSTRUCTIONS TO VISIBILITY.

* THESE STATIONS ARE NOT UNDER NWS QUALITY CONTROL. THEY DO NOT
   REPORT WEATHER SUCH AS PRECIPITATION OR FOG.

MTZ001>007-043-290100-
WEST OF THE DIVIDE
CITY           SKY/WX    TMP DP  RH WIND       PRES   REMARKS
KALISPELL      CLOUDY    36  30  79 CALM      30.35R
MISSOULA       PTCLDY    45  28  51 N7        30.34R
BUTTE          CLEAR     39  23  53 NW9       30.29R WCI  33
MULLAN PASS    MOCLDY    28  27  96 W3        30.31S
* ANACONDA     CLEAR     39  25  57 E6         N/A   WCI  35
* ESSEX        N/A       37  30  76 N/A        N/A
* EUREKA APT   CLEAR     46  28  50 CALM      30.36R
* HAMILTON APT CLEAR     48  21  34 W5        30.32R
* LIBBY APT    CLEAR     32  32 100 CALM      30.39R VSB M1/4
* LINCOLN      N/A       47  24  40 W3G10      N/A
* LOOKOUT PASS N/A       37  30  76 N1         N/A
* POLSON       N/A       43  29  58 SE2        N/A
* RONAN APT    PTCLDY    41  41 100 N/A        N/A
* SEELEY LAKE  N/A       46  22  39 NW5G13     N/A
* THOMP F APT  CLEAR     33  31  92 W1G9       N/A
$$

MTZ008-052>055-290100-
SOUTHWEST MONTANA
CITY           SKY/WX    TMP DP  RH WIND       PRES   REMARKS
BOZEMAN        PTCLDY    41  28  60 NE6       30.29R
DILLON         CLEAR     45  21  38 S6        30.25R
* W YELLOWSTON CLEAR     34  30  85 SW4G11     N/A
* THREE FORKS  CLEAR     48  27  44 N/A        N/A
* BOULDER HILL N/A       39  18  43 W1G8       N/A
* MONIDA PASS  N/A       38  25  60 N/A        N/A
* RAYNOLDS PAS N/A       32  14  47 SE13       N/A   WCI  22
* WHITEHALL    N/A       51  21  31 W10G16     N/A
* WISE RIVER   N/A       43  21  42 NW7G14     N/A
$$

MTZ009>010-012-014-046-048-049-054-290100-
EAST SLOPES AND CENTRAL MONTANA
CITY           SKY/WX    TMP DP  RH WIND       PRES   REMARKS
CUT BANK       PTCLDY    36  28  73 E6        30.31R WCI  31
GREAT FALLS    CLOUDY    39  32  76 E7        30.31R WCI  34
HELENA         PTCLDY    46  21  37 W9        30.29R
MALMSTROM AFB  CLOUDY    37  34  89 E6        30.33R WCI  32
* CONRAD       PTCLDY    39  32  76 CALM       N/A
* DEARBORN     N/A       45  28  51 VRB9G17    N/A
* EAST GLACIER N/A       36  23  59 W9         N/A   WCI  29
* MONARCH      N/A       36  22  57 NW4        N/A
* PENDROY      N/A       36  33  89 S6         N/A   WCI  31
* ROGERS PASS  N/A       39  19  45 SE5        N/A   WCI  35
* SWEET GRASS  N/A       39  30  70 E3         N/A
* WHITE SULPH  N/A       43  26  51 NW3G10     N/A
$$

MTZ011-013-016-021-035-040-045-047-050-051-290100-
NORTH CENTRAL MONTANA
CITY           SKY/WX    TMP DP  RH WIND       PRES   REMARKS
HAVRE          MOCLDY    36  30  79 SW8       30.34R WCI  30
LEWISTOWN      CLOUDY    37  30  76 NW5       30.31R WCI  33
* N BAR RANCH  CLOUDY    37  19  48 N7        30.30R WCI  32
* CHINOOK      CLEAR     36  30  79 W8        30.33R WCI  30
* MALTA APT    PTCLDY    37  28  70 W7         N/A   WCI  32
* CHESTER      N/A       40  30  68 SW2        N/A
* DENTON       N/A       36  33  89 N/A        N/A
* GEYSER       N/A       37  33  85 E5         N/A   WCI  33
* JUDITH GAP   N/A       35  32  89 N24        N/A   WCI  23
* LOMA         N/A       35  31  85 NE6        N/A   WCI  30
$$

MTZ017>020-022>027-061-062-290100-
NORTHEAST MONTANA
CITY           SKY/WX    TMP DP  RH WIND       PRES   REMARKS
GLASGOW        PTCLDY    36  28  73 NW10      30.25R WCI  29
GLENDIVE       CLOUDY    34  28  79 NW18G25   30.24R WCI  23
JORDAN         MOCLDY    34  28  79 NW10      30.28R WCI  26
SIDNEY         CLOUDY    34  28  79 NW17G23   30.25R WCI  23
WOLF POINT     PTCLDY    37  28  70 NW15      30.26R WCI  28
* BEAVER HILL  N/A       33  30  89 NW22G28    N/A   WCI  21
* CIRCLE       N/A       34  30  85 NW7G12     N/A   WCI  28
* LINDSAY DVD  N/A       31  29  92 NW20G30    N/A   WCI  19
* NAVAJO       N/A       31  28  89 NW18G27    N/A   WCI  19
* PLENTYWOOD A PTCLDY    32  28  85 NW20G28   30.18R WCI  20
* POPLAR APT   CLEAR     36  30  79 N/A       30.24R
* SACO         N/A       38  30  73 W12        N/A   WCI  30
* SCOBEY APT   CLEAR     34  27  76 NW15G21    N/A   WCI  24
$$

MTZ028>042-056>058-290100-
SOUTHCENTRAL AND SOUTHEAST MONTANA
CITY           SKY/WX    TMP DP  RH WIND       PRES   REMARKS
BAKER          CLOUDY    34  28  79 NW20G30   30.19R WCI  23
BILLINGS       CLOUDY    45  30  56 NE15G22   30.28R
LIVINGSTON     CLOUDY    46  25  44 NW8       30.27R
MILES CITY     CLOUDY    36  30  79 NW13      30.25R WCI  27
* BIG TIMBER A PTCLDY    45  27  49 E9G16     30.29R
* FORSYTH APT  CLOUDY    39  30  70 W8        30.28R WCI  33
* LAUREL APT   MOCLDY    46  27  48 N10G16     N/A
* ROUNDUP APT  CLOUDY    43  28  56 N/A        N/A
* ALZADA       N/A       34  30  85 W16        N/A   WCI  24
* HYSHAM       N/A       40  30  68 NE5G11     N/A   WCI  36
* LAME DEER    N/A       36  30  79 N12        N/A   WCI  28
* REED POINT   N/A       48  24  39 VRB6G16    N/A
* ROSCOE HILL  N/A       43  19  38 NW9G16     N/A
$$

REGIONAL REPORTS...DAKOTAS
CITY           SKY/WX    TMP DP  RH WIND       PRES   REMARKS
WILLISTON      CLOUDY    34  28  79 NW20G29   30.19R WCI  23
DICKINSON      CLOUDY    32  28  85 NW26G35   30.10R WCI  18
BEACH          CLOUDY    32  32 100 NW22G31   30.19R WCI  19
CROSBY         CLOUDY    30  30 100 NW23G32   30.16R WCI  17
TIOGA          CLOUDY    28  28 100 NW23G30   30.17R WCI  14
WATFORD CITY   FOG       32  30  92 NW23G32   30.14R WCI  19
BISMARCK       CLOUDY    34  28  79 NW22G32   30.06R WCI  22
GRAND FORKS    N/A       32  30  92 N24G30    29.89R WCI  19
FARGO          FOG       34  32  92 NW15      29.85R VSB 3    WCI  24
BUFFALO SD     PTCLDY    36  28  73 NW31G41   30.07R WCI  23
RAPID CITY     MOCLDY    45  30  56 N26G38    30.06R
$$

REGIONAL REPORTS...WYOMING/IDAHO/WASHINGTON
CITY           SKY/WX    TMP DP  RH WIND       PRES   REMARKS
GILLETTE       PTCLDY    39  28  65 NW15      30.19R WCI  31
SHERIDAN       CLOUDY    43  30  60 NW13      30.24R
CODY           PTCLDY    41  25  53 NW5       30.25R
YELLOWSTONE LA PTCLDY    30  27  89 W5        30.29R WCI  25
SALMON         CLEAR     36  28  73 CALM      30.32R
MULLAN PASS    MOCLDY    28  27  96 W3        30.31S
SAND POINT     CLOUDY    36  36 100 N3        30.41R
SPOKANE        FOG       36  36 100 NE7       30.39R VSB 3    WCI  30
$$

REGIONAL REPORTS...ALBERTA
CITY           SKY/WX    TMP DP  RH WIND       PRES   REMARKS
CALGARY        PTCLDY    36  25  64 E9        30.28R WCI  29
LETHBRIDGE     N/A       37  28  70 SE7       30.32R WCI  32
MEDICINE HAT   N/A       37  30  76 NW6       30.32R WCI  32
EDMONTON       MOCLDY    25  21  85 N3        30.32R
WATERTON GATE  N/A       37  25  62 SW8        N/A   WCI  31
CARDSTON       N/A       41  30  65 SE2        N/A
MILK RIVER     N/A       36  30  79 NE3        N/A
$$

REGIONAL REPORTS...SASKATCHEWAN
CITY           SKY/WX    TMP DP  RH WIND       PRES   REMARKS
SWIFT CURRENT  MOCLDY    28  27  96 NW16G23   30.24R WCI  16
REGINA         CLOUDY    27  25  92 NW28G37   30.20R WCI  11
VAL MARIE      N/A       34  28  79 NW20G28    N/A   WCI  23
ASSINIBOIA     N/A       32  28  85 NW17G23    N/A   WCI  21
CORONACH       N/A       32  28  85 NW21G31    N/A   WCI  20

$$




USA.gov is the U.S. government's official web portal to all federal, state and local government web resources and services.